Time,TemperatureF,DewpointF,PressureIn,WindDirection,WindDirectionDegrees,WindSpeedMPH,WindSpeedGustMPH,Humidity,HourlyPrecipIn,Conditions,Clouds,dailyrainin,SoftwareType,DateUTC
2013-08-23 05:00:00,59.0,-99.9,29.87,South,170,10.0,10.0,-999,-99.99,,,-99.99,,2013-08-23 12:00:00,
2013-08-23 05:22:00,59.0,-99.9,29.87,South,170,10.0,10.0,-999,-99.99,,,-99.99,,2013-08-23 12:22:00,
2013-08-23 05:32:00,59.0,-99.9,29.87,South,170,10.0,10.0,-999,-99.99,,,-99.99,,2013-08-23 12:32:00,
2013-08-23 05:42:00,59.0,-99.9,29.87,South,170,10.0,10.0,-999,-99.99,,,-99.99,,2013-08-23 12:42:00,
2013-08-23 05:52:00,59.0,-99.9,29.87,South,170,10.0,10.0,-999,-99.99,,,-99.99,,2013-08-23 12:52:00,
2013-08-23 06:00:00,59.0,-99.9,29.87,South,170,13.0,13.0,-999,-99.99,,,-99.99,,2013-08-23 13:00:00,
2013-08-23 06:42:00,59.0,-99.9,29.87,South,170,13.0,13.0,-999,-99.99,,,-99.99,,2013-08-23 13:42:00,
2013-08-23 06:53:00,59.0,-99.9,29.87,South,170,13.0,13.0,-999,-99.99,,,-99.99,,2013-08-23 13:53:00,
2013-08-23 07:00:00,59.0,-99.9,29.87,South,170,13.0,14.0,-999,-99.99,,,-99.99,,2013-08-23 14:00:00,
2013-08-23 07:42:00,59.0,-99.9,29.87,South,170,13.0,14.0,-999,-99.99,,,-99.99,,2013-08-23 14:42:00,
2013-08-23 07:52:00,59.0,-99.9,29.87,South,170,13.0,14.0,-999,-99.99,,,-99.99,,2013-08-23 14:52:00,
2013-08-23 08:00:00,59.0,-99.9,29.88,South,170,11.0,13.0,-999,-99.99,,,-99.99,,2013-08-23 15:00:00,
2013-08-23 08:44:00,59.0,-99.9,29.88,South,170,11.0,13.0,-999,-99.99,,,-99.99,,2013-08-23 15:44:00,
2013-08-23 08:54:00,59.0,-99.9,29.88,South,170,11.0,13.0,-999,-99.99,,,-99.99,,2013-08-23 15:54:00,
2013-08-23 09:00:00,59.0,-99.9,29.89,South,190,15.0,15.0,-999,-99.99,,,-99.99,,2013-08-23 16:00:00,
2013-08-23 09:42:00,59.0,-99.9,29.89,South,190,15.0,15.0,-999,-99.99,,,-99.99,,2013-08-23 16:42:00,
2013-08-23 09:53:00,59.0,-99.9,29.89,South,190,15.0,15.0,-999,-99.99,,,-99.99,,2013-08-23 16:53:00,
2013-08-23 10:00:00,60.0,-99.9,29.89,South,170,13.0,14.0,-999,-99.99,,,-99.99,,2013-08-23 17:00:00,
2013-08-23 10:43:00,60.0,-99.9,29.89,South,170,13.0,14.0,-999,-99.99,,,-99.99,,2013-08-23 17:43:00,
2013-08-23 10:54:00,60.0,-99.9,29.89,South,170,13.0,14.0,-999,-99.99,,,-99.99,,2013-08-23 17:54:00,
2013-08-23 11:00:00,61.0,-99.9,29.90,South,170,16.0,17.0,-999,-99.99,,,-99.99,,2013-08-23 18:00:00,
2013-08-23 11:42:00,61.0,-99.9,29.90,South,170,16.0,17.0,-999,-99.99,,,-99.99,,2013-08-23 18:42:00,
2013-08-23 11:52:00,61.0,-99.9,29.90,South,170,16.0,17.0,-999,-99.99,,,-99.99,,2013-08-23 18:52:00,
2013-08-23 12:00:00,62.0,-99.9,29.90,South,170,11.0,13.0,-999,-99.99,,,-99.99,,2013-08-23 19:00:00,
2013-08-23 12:43:00,62.0,-99.9,29.90,South,170,11.0,13.0,-999,-99.99,,,-99.99,,2013-08-23 19:43:00,
2013-08-23 12:52:00,62.0,-99.9,29.90,South,170,11.0,13.0,-999,-99.99,,,-99.99,,2013-08-23 19:52:00,
2013-08-23 13:00:00,64.0,-99.9,29.89,SSE,160,17.0,20.0,-999,-99.99,,,-99.99,,2013-08-23 20:00:00,
2013-08-23 13:42:00,64.0,-99.9,29.89,SSE,160,17.0,20.0,-999,-99.99,,,-99.99,,2013-08-23 20:42:00,
2013-08-23 13:52:00,64.0,-99.9,29.89,SSE,160,17.0,20.0,-999,-99.99,,,-99.99,,2013-08-23 20:52:00,
2013-08-23 14:00:00,64.0,-99.9,29.89,South,170,14.0,14.0,-999,-99.99,,,-99.99,,2013-08-23 21:00:00,
2013-08-23 14:22:00,64.0,-99.9,29.89,South,170,14.0,14.0,-999,-99.99,,,-99.99,,2013-08-23 21:22:00,
2013-08-23 14:34:00,64.0,-99.9,29.89,South,170,14.0,14.0,-999,-99.99,,,-99.99,,2013-08-23 21:34:00,
2013-08-23 14:44:00,64.0,-99.9,29.89,South,170,14.0,14.0,-999,-99.99,,,-99.99,,2013-08-23 21:44:00,
2013-08-23 14:54:00,64.0,-99.9,29.89,South,170,14.0,14.0,-999,-99.99,,,-99.99,,2013-08-23 21:54:00,
2013-08-23 15:00:00,63.0,-99.9,29.89,South,170,15.0,16.0,-999,-99.99,,,-99.99,,2013-08-23 22:00:00,
2013-08-23 15:24:00,63.0,-99.9,29.89,South,170,15.0,16.0,-999,-99.99,,,-99.99,,2013-08-23 22:24:00,
2013-08-23 15:33:00,63.0,-99.9,29.89,South,170,15.0,16.0,-999,-99.99,,,-99.99,,2013-08-23 22:33:00,
2013-08-23 15:43:00,63.0,-99.9,29.89,South,170,15.0,16.0,-999,-99.99,,,-99.99,,2013-08-23 22:43:00,
2013-08-23 15:54:00,63.0,-99.9,29.89,South,170,15.0,16.0,-999,-99.99,,,-99.99,,2013-08-23 22:54:00,
2013-08-23 16:00:00,63.0,-99.9,29.88,SSE,160,16.0,17.0,-999,-99.99,,,-99.99,,2013-08-23 23:00:00,
2013-08-23 16:22:00,63.0,-99.9,29.88,SSE,160,16.0,17.0,-999,-99.99,,,-99.99,,2013-08-23 23:22:00,
2013-08-23 16:33:00,63.0,-99.9,29.88,SSE,160,16.0,17.0,-999,-99.99,,,-99.99,,2013-08-23 23:33:00,
2013-08-23 16:43:00,63.0,-99.9,29.88,SSE,160,16.0,17.0,-999,-99.99,,,-99.99,,2013-08-23 23:43:00,
2013-08-23 16:54:00,63.0,-99.9,29.88,SSE,160,16.0,17.0,-999,-99.99,,,-99.99,,2013-08-23 23:54:00,
2013-08-23 17:00:00,64.0,-99.9,29.88,South,180,14.0,16.0,-999,-99.99,,,-99.99,,2013-08-24 00:00:00,
2013-08-23 17:22:00,64.0,-99.9,29.88,South,180,14.0,16.0,-999,-99.99,,,-99.99,,2013-08-24 00:22:00,
2013-08-23 17:32:00,64.0,-99.9,29.88,South,180,14.0,16.0,-999,-99.99,,,-99.99,,2013-08-24 00:32:00,
2013-08-23 17:43:00,64.0,-99.9,29.88,South,180,14.0,16.0,-999,-99.99,,,-99.99,,2013-08-24 00:43:00,
2013-08-23 17:53:00,64.0,-99.9,29.88,South,180,14.0,16.0,-999,-99.99,,,-99.99,,2013-08-24 00:53:00,
2013-08-23 18:00:00,63.0,-99.9,29.87,SSE,160,13.0,14.0,-999,-99.99,,,-99.99,,2013-08-24 01:00:00,
2013-08-23 18:22:00,63.0,-99.9,29.87,SSE,160,13.0,14.0,-999,-99.99,,,-99.99,,2013-08-24 01:22:00,
2013-08-23 18:32:00,63.0,-99.9,29.87,SSE,160,13.0,14.0,-999,-99.99,,,-99.99,,2013-08-24 01:32:00,
2013-08-23 18:42:00,63.0,-99.9,29.87,SSE,160,13.0,14.0,-999,-99.99,,,-99.99,,2013-08-24 01:42:00,
2013-08-23 18:53:00,63.0,-99.9,29.87,SSE,160,13.0,14.0,-999,-99.99,,,-99.99,,2013-08-24 01:53:00,
2013-08-23 19:00:00,66.0,-99.9,29.87,SSE,160,14.0,14.0,-999,-99.99,,,-99.99,,2013-08-24 02:00:00,
2013-08-23 19:22:00,66.0,-99.9,29.87,SSE,160,14.0,14.0,-999,-99.99,,,-99.99,,2013-08-24 02:22:00,
2013-08-23 19:32:00,66.0,-99.9,29.87,SSE,160,14.0,14.0,-999,-99.99,,,-99.99,,2013-08-24 02:32:00,
2013-08-23 19:42:00,66.0,-99.9,29.87,SSE,160,14.0,14.0,-999,-99.99,,,-99.99,,2013-08-24 02:42:00,
2013-08-23 19:52:00,66.0,-99.9,29.87,SSE,160,14.0,14.0,-999,-99.99,,,-99.99,,2013-08-24 02:52:00,
2013-08-23 20:00:00,65.0,-99.9,29.87,SSW,200,15.0,16.0,-999,-99.99,,,-99.99,,2013-08-24 03:00:00,
2013-08-23 20:22:00,65.0,-99.9,29.87,SSW,200,15.0,16.0,-999,-99.99,,,-99.99,,2013-08-24 03:22:00,
2013-08-23 20:34:00,65.0,-99.9,29.87,SSW,200,15.0,16.0,-999,-99.99,,,-99.99,,2013-08-24 03:34:00,
2013-08-23 20:44:00,65.0,-99.9,29.87,SSW,200,15.0,16.0,-999,-99.99,,,-99.99,,2013-08-24 03:44:00,
2013-08-23 20:55:00,65.0,-99.9,29.87,SSW,200,15.0,16.0,-999,-99.99,,,-99.99,,2013-08-24 03:55:00,
2013-08-23 21:00:00,63.0,-99.9,29.88,South,170,10.0,10.0,-999,-99.99,,,-99.99,,2013-08-24 04:00:00,
2013-08-23 21:44:00,63.0,-99.9,29.88,South,170,10.0,10.0,-999,-99.99,,,-99.99,,2013-08-24 04:44:00,
2013-08-23 21:54:00,63.0,-99.9,29.88,South,170,10.0,10.0,-999,-99.99,,,-99.99,,2013-08-24 04:54:00,
2013-08-23 22:00:00,62.0,-99.9,29.89,SSE,160,14.0,14.0,-999,-99.99,,,-99.99,,2013-08-24 05:00:00,
2013-08-23 22:43:00,62.0,-99.9,29.89,SSE,160,14.0,14.0,-999,-99.99,,,-99.99,,2013-08-24 05:43:00,
2013-08-23 22:53:00,62.0,-99.9,29.89,SSE,160,14.0,14.0,-999,-99.99,,,-99.99,,2013-08-24 05:53:00,
2013-08-23 23:00:00,62.0,-99.9,29.89,SSE,160,15.0,16.0,-999,-99.99,,,-99.99,,2013-08-24 06:00:00,
2013-08-23 23:42:00,62.0,-99.9,29.89,SSE,160,15.0,16.0,-999,-99.99,,,-99.99,,2013-08-24 06:42:00,
2013-08-23 23:52:00,62.0,-99.9,29.89,SSE,160,15.0,16.0,-999,-99.99,,,-99.99,,2013-08-24 06:52:00,